AVA225 SAWC-SAZS

Flight info

Callsign AVA225
Flight time N/A
Altitude 36000
Route OGTUR1C OGTUR UT659 DAKAX UT658 ESQ UZ108 TORES TORES2Q
Aircraft A320/M-SDE3FGHIRWY/LB1

Departure

Time 2026-04-28 17:34
Airport El Calafate - Commander Armando Tola International Airport (SAWC)

Arrival

Time N/A
Airport Teniente Luis Candelaria International Airport (SAZS)
Time Latitude Longitude Altitude Speed Heading
2026-04-28 16:58 -50.28328 -72.05319 641 ft 0 kts 232°
2026-04-28 17:22 -50.28321 -72.05306 641 ft 4 kts 237°
2026-04-28 17:23 -50.28287 -72.05262 641 ft 4 kts 176°
2026-04-28 17:23 -50.28261 -72.05269 641 ft 4 kts 184°
2026-04-28 17:23 -50.28250 -72.05267 641 ft 1 kts 264°
2026-04-28 17:28 -50.28252 -72.05288 641 ft 5 kts 264°
2026-04-28 17:29 -50.28253 -72.05370 641 ft 10 kts 280°
2026-04-28 17:29 -50.28179 -72.05406 641 ft 14 kts 355°
2026-04-28 17:29 -50.28151 -72.05410 641 ft 0 kts 355°
2026-04-28 17:30 -50.28135 -72.05412 641 ft 5 kts 355°
2026-04-28 17:30 -50.28073 -72.05419 642 ft 9 kts 355°
2026-04-28 17:30 -50.28023 -72.05353 643 ft 13 kts 77°
2026-04-28 17:31 -50.28014 -72.05185 642 ft 18 kts 87°
2026-04-28 17:31 -50.27982 -72.04702 644 ft 27 kts 85°
2026-04-28 17:32 -50.27943 -72.04029 641 ft 35 kts 84°
2026-04-28 17:32 -50.27936 -72.03756 641 ft 20 kts 104°
2026-04-28 17:32 -50.27961 -72.03588 642 ft 10 kts 86°
2026-04-28 17:32 -50.27925 -72.03563 642 ft 6 kts 314°
2026-04-28 17:33 -50.27920 -72.03593 642 ft 0 kts 270°
2026-04-28 17:33 -50.27921 -72.03635 642 ft 20 kts 268°
2026-04-28 17:34 -50.27980 -72.04644 644 ft 112 kts 265°
2026-04-28 17:34 -50.28073 -72.06134 747 ft 155 kts 264°
2026-04-28 17:34 -50.28162 -72.07898 1257 ft 167 kts 264°
2026-04-28 17:34 -50.28270 -72.09703 1999 ft 169 kts 263°
2026-04-28 17:35 -50.28386 -72.11570 2317 ft 176 kts 263°
2026-04-28 17:35 -50.28509 -72.13602 2522 ft 199 kts 264°
2026-04-28 17:35 -50.28644 -72.15891 2799 ft 224 kts 265°
2026-04-28 17:35 -50.28795 -72.18446 3197 ft 248 kts 265°
2026-04-28 17:36 -50.28956 -72.21185 3894 ft 258 kts 267°
2026-04-28 17:36 -50.29013 -72.23999 4669 ft 260 kts 283°
2026-04-28 17:36 -50.28217 -72.26465 5445 ft 257 kts 319°
2026-04-28 17:36 -50.26684 -72.27787 6306 ft 254 kts 342°
2026-04-28 17:37 -50.24976 -72.28463 7216 ft 254 kts 348°
2026-04-28 17:37 -50.23233 -72.28960 8014 ft 258 kts 349°
2026-04-28 17:37 -50.21452 -72.29439 8765 ft 262 kts 349°
2026-04-28 17:37 -50.19645 -72.29940 9501 ft 267 kts 349°
2026-04-28 17:38 -50.17767 -72.30003 10175 ft 277 kts
2026-04-28 17:38 -50.17126 -72.29854 10290 ft 285 kts
2026-04-28 17:38 -50.11277 -72.26960 10764 ft 351 kts 13°
2026-04-28 17:39 -50.09704 -72.26164 10944 ft 362 kts 14°
2026-04-28 17:39 -50.06472 -72.24521 11211 ft 370 kts 13°
2026-04-28 17:39 -50.01566 -72.22028 11249 ft 374 kts 13°
2026-04-28 17:40 -49.99082 -72.20768 11857 ft 377 kts 13°
2026-04-28 17:40 -49.96570 -72.19500 12455 ft 384 kts 12°
2026-04-28 17:40 -49.94015 -72.18220 12997 ft 390 kts 12°
2026-04-28 17:40 -49.91424 -72.16923 13622 ft 393 kts 12°
2026-04-28 17:41 -49.89689 -72.16052 14024 ft 395 kts 12°
2026-04-28 17:41 -49.86193 -72.14296 14817 ft 399 kts 11°
2026-04-28 17:41 -49.83549 -72.12971 15386 ft 402 kts 11°
2026-04-28 17:41 -49.80885 -72.11635 15949 ft 405 kts 11°
2026-04-28 17:42 -49.78202 -72.10288 16481 ft 408 kts 11°
2026-04-28 17:42 -49.76401 -72.09388 16832 ft 410 kts 11°
2026-04-28 17:42 -49.72775 -72.07581 17529 ft 413 kts 10°
2026-04-28 17:42 -49.70035 -72.06219 18015 ft 416 kts 10°
2026-04-28 17:43 -49.67277 -72.04848 18515 ft 419 kts 10°
2026-04-28 17:43 -49.64499 -72.03466 18988 ft 422 kts 11°
2026-04-28 17:43 -49.61700 -72.02077 19426 ft 425 kts 11°
2026-04-28 17:43 -49.58881 -72.00680 19882 ft 428 kts 11°
2026-04-28 17:44 -49.56043 -71.99279 20314 ft 431 kts 11°
2026-04-28 17:44 -49.53185 -71.97873 20715 ft 434 kts 12°
2026-04-28 17:44 -49.50308 -71.96458 21105 ft 437 kts 12°
2026-04-28 17:44 -49.47406 -71.95027 21493 ft 440 kts 12°
2026-04-28 17:45 -49.44469 -71.93784 21861 ft 439 kts
2026-04-28 17:45 -49.41481 -71.92777 22235 ft 441 kts
2026-04-28 17:45 -49.38482 -71.91769 22619 ft 444 kts
2026-04-28 17:45 -49.35459 -71.90752 22995 ft 446 kts
2026-04-28 17:46 -49.32426 -71.89735 23353 ft 449 kts
2026-04-28 17:46 -49.29375 -71.88715 23701 ft 450 kts
2026-04-28 17:46 -49.26310 -71.87690 24038 ft 453 kts
2026-04-28 17:46 -49.23235 -71.86666 24380 ft 455 kts
2026-04-28 17:47 -49.20148 -71.85635 24764 ft 456 kts
2026-04-28 17:47 -49.17054 -71.84602 25140 ft 456 kts
2026-04-28 17:47 -49.13963 -71.83572 25502 ft 456 kts
2026-04-28 17:47 -49.11898 -71.82885 25739 ft 457 kts
2026-04-28 17:48 -49.07766 -71.81514 26215 ft 457 kts
2026-04-28 17:48 -49.04686 -71.80493 26551 ft 457 kts
2026-04-28 17:48 -49.01581 -71.79466 26879 ft 457 kts
2026-04-28 17:48 -48.98476 -71.78441 27204 ft 457 kts
2026-04-28 17:49 -48.95390 -71.77421 27652 ft 454 kts
2026-04-28 17:49 -48.92318 -71.76406 28086 ft 451 kts
2026-04-28 17:49 -48.89266 -71.75400 28507 ft 448 kts
2026-04-28 17:49 -48.86233 -71.74404 28931 ft 446 kts
2026-04-28 17:50 -48.83216 -71.73428 29353 ft 443 kts
2026-04-28 17:50 -48.80213 -71.72472 29710 ft 441 kts
2026-04-28 17:50 -48.77222 -71.71526 30077 ft 439 kts
2026-04-28 17:50 -48.74248 -71.70590 30479 ft 436 kts
2026-04-28 17:51 -48.71294 -71.69661 30815 ft 434 kts
2026-04-28 17:51 -48.68341 -71.68729 31112 ft 434 kts
2026-04-28 17:51 -48.65410 -71.67800 31407 ft 434 kts
2026-04-28 17:51 -48.62458 -71.66861 31711 ft 434 kts
2026-04-28 17:52 -48.59516 -71.65925 32001 ft 434 kts
2026-04-28 17:52 -48.56565 -71.64988 32277 ft 433 kts
2026-04-28 17:52 -48.50678 -71.63124 32830 ft 433 kts
2026-04-28 17:53 -48.47754 -71.62199 33085 ft 433 kts
2026-04-28 17:53 -48.44814 -71.61270 33356 ft 433 kts
2026-04-28 17:53 -48.41871 -71.60341 33649 ft 432 kts
2026-04-28 17:53 -48.38937 -71.59418 33927 ft 432 kts
2026-04-28 17:54 -48.36001 -71.58502 34192 ft 431 kts
2026-04-28 17:54 -48.33063 -71.57591 34443 ft 431 kts
2026-04-28 17:54 -48.30130 -71.56684 34680 ft 432 kts
2026-04-28 17:54 -48.27194 -71.55778 34891 ft 432 kts
2026-04-28 17:55 -48.24247 -71.54865 35062 ft 434 kts
2026-04-28 17:55 -48.21301 -71.53948 35237 ft 435 kts
2026-04-28 17:55 -48.15356 -71.52104 35302 ft 439 kts
2026-04-28 17:56 -48.09377 -71.50243 35309 ft 440 kts
2026-04-28 17:56 -48.03405 -71.48382 35307 ft 440 kts